When you browse on this site, cookies collect data to enhance your experience and personalize the content and advertising you see.
Visit our Privacy Policy to learn more. By continuing to use the site, you agree to this use of cookies and data.
  • In Latvia
  • List of Countries
  • For 7 days
  • Water Temperature
  • Satellite Maps
  • Weather Map
  • Weather Widgets
  • user-avatar
    Login

    Hourly Weather Konstantyna

    Today, 18 July, Thursday

    Time Temperature Precipitation Wind Pressure Humidity
    00:00 +24°C° 0.1 mm 0 mps 708 mmHg 37%
    01:00 +26°C° 0 mm 1 mps 708 mmHg 38%
    02:00 +26°C° 0 mm 1 mps 708 mmHg 38%
    03:00 +26°C° 0 mm 1 mps 707 mmHg 38%
    04:00 +26°C° 0.1 mm 1 mps 708 mmHg 40%
    05:00 +26°C° 0.1 mm 1 mps 708 mmHg 43%
    06:00 +25°C° 0.1 mm 2 mps 708 mmHg 45%
    07:00 +27°C° 0.2 mm 2 mps 709 mmHg 41%
    08:00 +28°C° 0.2 mm 2 mps 709 mmHg 38%
    09:00 +29°C° 0.2 mm 3 mps 710 mmHg 35%
    10:00 +30°C° 0 mm 3 mps 710 mmHg 32%
    11:00 +32°C° 0 mm 4 mps 710 mmHg 28%
    12:00 +33°C° 0 mm 4 mps 710 mmHg 25%
    13:00 +33°C° 0 mm 5 mps 710 mmHg 25%
    14:00 +33°C° 0 mm 5 mps 710 mmHg 25%
    15:00 +34°C° 0 mm 5 mps 710 mmHg 25%
    16:00 +32°C° 0 mm 5 mps 710 mmHg 28%
    17:00 +30°C° 0 mm 4 mps 710 mmHg 31%
    18:00 +28°C° 0 mm 4 mps 710 mmHg 34%
    19:00 +27°C° 0 mm 3 mps 710 mmHg 39%
    20:00 +25°C° 0 mm 2 mps 711 mmHg 43%
    21:00 +24°C° 0 mm 1 mps 711 mmHg 48%
    22:00 +23°C° 0 mm 1 mps 711 mmHg 48%
    23:00 +23°C° 0 mm 1 mps 710 mmHg 48%

    Tomorrow, 19 July, Friday

    Time Temperature Precipitation Wind Pressure Humidity
    00:00 +21°C° 0 mm 0 mps 710 mmHg 49%
    01:00 +20°C° 0 mm 0 mps 710 mmHg 49%
    02:00 +20°C° 0 mm 0 mps 710 mmHg 49%
    03:00 +20°C° 0 mm 0 mps 710 mmHg 49%
    04:00 +21°C° 0 mm 0 mps 710 mmHg 46%
    05:00 +22°C° 0 mm 0 mps 710 mmHg 44%
    06:00 +22°C° 0 mm 0 mps 711 mmHg 41%
    07:00 +25°C° 0 mm 0 mps 711 mmHg 36%
    08:00 +29°C° 0 mm 1 mps 712 mmHg 31%
    09:00 +31°C° 0 mm 1 mps 712 mmHg 26%
    10:00 +32°C° 0 mm 1 mps 712 mmHg 24%
    11:00 +34°C° 0 mm 1 mps 712 mmHg 21%
    12:00 +36°C° 0 mm 2 mps 712 mmHg 19%
    13:00 +36°C° 0 mm 3 mps 712 mmHg 19%
    14:00 +37°C° 0 mm 4 mps 712 mmHg 19%
    15:00 +37°C° 0 mm 4 mps 711 mmHg 19%
    16:00 +35°C° 0 mm 4 mps 711 mmHg 24%
    17:00 +34°C° 0 mm 4 mps 711 mmHg 29%
    18:00 +32°C° 0 mm 4 mps 711 mmHg 34%
    19:00 +29°C° 0 mm 3 mps 711 mmHg 39%
    20:00 +28°C° 0 mm 2 mps 711 mmHg 44%
    21:00 +26°C° 0 mm 1 mps 711 mmHg 48%
    22:00 +26°C° 0 mm 1 mps 710 mmHg 48%
    23:00 +26°C° 0 mm 1 mps 710 mmHg 48%

    Day after tomorrow, 20 July, Saturday

    Time Temperature Precipitation Wind Pressure Humidity
    00:00 +26°C° 0 mm 1 mps 710 mmHg 48%
    01:00 +25°C° 0 mm 1 mps 710 mmHg 48%
    02:00 +25°C° 0 mm 1 mps 710 mmHg 49%
    03:00 +25°C° 0 mm 1 mps 710 mmHg 49%
    04:00 +26°C° 0 mm 1 mps 710 mmHg 46%
    05:00 +27°C° 0 mm 1 mps 710 mmHg 43%
    06:00 +28°C° 0 mm 1 mps 711 mmHg 40%
    07:00 +30°C° 0 mm 2 mps 711 mmHg 35%
    08:00 +34°C° 0 mm 3 mps 712 mmHg 31%
    09:00 +36°C° 0 mm 4 mps 712 mmHg 26%
    10:00 +37°C° 0 mm 4 mps 712 mmHg 24%
    11:00 +40°C° 0 mm 4 mps 712 mmHg 22%
    12:00 +41°C° 0 mm 4 mps 712 mmHg 20%
    13:00 +40°C° 0 mm 5 mps 712 mmHg 22%
    14:00 +39°C° 0 mm 6 mps 712 mmHg 24%
    15:00 +38°C° 0 mm 7 mps 711 mmHg 26%
    16:00 +36°C° 0.1 mm 6 mps 711 mmHg 29%
    17:00 +35°C° 0.1 mm 4 mps 711 mmHg 31%
    18:00 +34°C° 0.1 mm 3 mps 711 mmHg 33%
    19:00 +31°C° 0 mm 2 mps 711 mmHg 38%
    20:00 +30°C° 0 mm 2 mps 711 mmHg 42%
    21:00 +28°C° 0 mm 1 mps 712 mmHg 47%
    22:00 +28°C° 0 mm 1 mps 712 mmHg 48%
    23:00 +25°C° 0 mm 0 mps 711 mmHg 49%

    21 July, Sunday

    Time Temperature Precipitation Wind Pressure Humidity
    00:00 +25°C° 0 mm 0 mps 711 mmHg 50%
    01:00 +25°C° 0 mm 0 mps 711 mmHg 51%
    02:00 +24°C° 0 mm 0 mps 711 mmHg 51%
    03:00 +24°C° 0 mm 0 mps 710 mmHg 52%
    04:00 +26°C° 0 mm 1 mps 711 mmHg 50%
    05:00 +27°C° 0 mm 1 mps 711 mmHg 47%
    06:00 +28°C° 0 mm 1 mps 712 mmHg 45%
    07:00 +30°C° 0 mm 1 mps 712 mmHg 39%
    08:00 +32°C° 0 mm 2 mps 713 mmHg 32%
    09:00 +35°C° 0 mm 2 mps 713 mmHg 26%
    10:00 +36°C° 0 mm 3 mps 713 mmHg 22%
    11:00 +37°C° 0 mm 3 mps 713 mmHg 19%
    12:00 +38°C° 0 mm 3 mps 713 mmHg 16%
    13:00 +38°C° 0 mm 4 mps 713 mmHg 18%
    14:00 +39°C° 0 mm 5 mps 713 mmHg 20%
    15:00 +39°C° 0 mm 6 mps 712 mmHg 22%
    16:00 +36°C° 0 mm 5 mps 712 mmHg 28%
    17:00 +34°C° 0 mm 4 mps 712 mmHg 35%
    18:00 +32°C° 0 mm 4 mps 712 mmHg 41%
    19:00 +29°C° 0 mm 3 mps 712 mmHg 48%
    20:00 +28°C° 0 mm 2 mps 712 mmHg 55%
    21:00 +26°C° 0 mm 1 mps 712 mmHg 62%
    22:00 +26°C° 0 mm 1 mps 712 mmHg 63%
    23:00 +23°C° 0 mm 0 mps 712 mmHg 64%

    22 July, Monday

    Time Temperature Precipitation Wind Pressure Humidity
    00:00 +23°C° 0 mm 0 mps 712 mmHg 65%
    01:00 +23°C° 0 mm 0 mps 712 mmHg 65%
    02:00 +22°C° 0 mm 0 mps 711 mmHg 65%
    03:00 +22°C° 0 mm 0 mps 711 mmHg 64%
    04:00 +23°C° 0 mm 0 mps 712 mmHg 60%
    05:00 +24°C° 0 mm 0 mps 712 mmHg 56%
    06:00 +27°C° 0 mm 1 mps 712 mmHg 52%
    07:00 +29°C° 0 mm 1 mps 713 mmHg 45%
    08:00 +31°C° 0 mm 1 mps 713 mmHg 39%
    09:00 +31°C° 0 mm 0 mps 713 mmHg 32%
    10:00 +35°C° 0 mm 1 mps 713 mmHg 28%
    11:00 +36°C° 0 mm 1 mps 713 mmHg 24%
    12:00 +38°C° 0 mm 2 mps 713 mmHg 19%
    13:00 +38°C° 0 mm 3 mps 713 mmHg 20%
    14:00 +38°C° 0 mm 4 mps 712 mmHg 21%
    15:00 +39°C° 0 mm 6 mps 712 mmHg 22%
    16:00 +36°C° 0 mm 5 mps 712 mmHg 25%
    17:00 +35°C° 0 mm 5 mps 712 mmHg 28%
    18:00 +33°C° 0 mm 4 mps 711 mmHg 30%
    19:00 +30°C° 0 mm 3 mps 711 mmHg 34%
    20:00 +29°C° 0 mm 2 mps 711 mmHg 37%
    21:00 +27°C° 0 mm 1 mps 711 mmHg 40%
    22:00 +27°C° 0 mm 1 mps 711 mmHg 41%
    23:00 +24°C° 0 mm 0 mps 711 mmHg 42%

    23 July, Tuesday

    Time Temperature Precipitation Wind Pressure Humidity
    00:00 +24°C° 0 mm 0 mps 711 mmHg 42%
    01:00 +23°C° 0 mm 0 mps 711 mmHg 43%
    02:00 +23°C° 0 mm 0 mps 710 mmHg 43%
    03:00 +22°C° 0 mm 0 mps 710 mmHg 44%
    04:00 +23°C° 0 mm 0 mps 710 mmHg 41%
    05:00 +25°C° 0 mm 0 mps 711 mmHg 37%
    06:00 +26°C° 0 mm 0 mps 711 mmHg 34%
    07:00 +28°C° 0 mm 0 mps 711 mmHg 30%
    08:00 +30°C° 0 mm 0 mps 712 mmHg 25%
    09:00 +32°C° 0 mm 0 mps 712 mmHg 21%
    10:00 +35°C° 0 mm 1 mps 712 mmHg 18%
    11:00 +36°C° 0 mm 1 mps 712 mmHg 16%
    12:00 +39°C° 0 mm 2 mps 712 mmHg 14%
    13:00 +38°C° 0 mm 3 mps 711 mmHg 15%
    14:00 +38°C° 0 mm 4 mps 711 mmHg 15%
    15:00 +39°C° 0 mm 5 mps 711 mmHg 16%
    16:00 +37°C° 0 mm 5 mps 710 mmHg 19%
    17:00 +35°C° 0 mm 5 mps 710 mmHg 21%
    18:00 +33°C° 0 mm 4 mps 710 mmHg 23%
    19:00 +31°C° 0 mm 3 mps 710 mmHg 26%
    20:00 +29°C° 0 mm 2 mps 710 mmHg 30%
    21:00 +27°C° 0 mm 1 mps 710 mmHg 33%
    22:00 +27°C° 0 mm 1 mps 710 mmHg 33%
    23:00 +24°C° 0 mm 0 mps 710 mmHg 34%
    Show more